Regional Weather Roundup
Issued by NWS

Home | Current Version | Previous Version | Graphics & Text | Print | Product List | Glossary On
Versions: 1 2 3 4 5 6 7 8 9 10 11 12 13 14 15 16 17 18 19 20 21 22 23 24 25 26 27 28 29 30 31 32 33 34 35 36 37 38 39 40 41 42 43 44 45 46 47 48 49 50
000
ASUS45 KTFX 271604
RWRMT
MONTANA HOURLY WEATHER ROUNDUP
NATIONAL WEATHER SERVICE GREAT FALLS MT
904 AM MST FRI FEB 27 2015

NOTE: "FAIR" INDICATES FEW OR NO CLOUDS BELOW 12000 FEET WITH NO
SIGNIFICANT WEATHER AND/OR OBSTRUCTIONS TO VISIBILITY.

* THESE STATIONS ARE NOT UNDER NWS QUALITY CONTROL. THEY DO NOT
   REPORT WEATHER SUCH AS PRECIPITATION OR FOG.

MTZ001>007-043-271700-
WEST OF THE DIVIDE
CITY           SKY/WX    TMP DP  RH WIND       PRES   REMARKS
KALISPELL      CLOUDY    28  14  56 NE15      29.90S WCI  16
MISSOULA       CLOUDY    25  12  58 E14       29.90R WCI  13
BUTTE          CLOUDY    10   5  80 CALM      29.83R
MULLAN PASS    CLOUDY    18  16  92 SE9       29.73R WCI   7
* ANACONDA     PTCLDY    14   9  80 S3         N/A
* ESSEX        N/A       15  10  80 NW3        N/A
* LINCOLN      N/A        1  -4  79 N/A        N/A
* LOOKOUT PASS N/A       24  18  78 S7G12      N/A   WCI  16
* POLSON       N/A       25  21  85 N2         N/A
* RONAN APT    PTCLDY    28  23  81 N/A        N/A
* SEELEY LAKE  N/A        9   5  84 N/A        N/A
* THOMP F APT  PTCLDY    19  15  84 N/A        N/A
$$

MTZ008-052>055-271700-
SOUTHWEST MONTANA
CITY           SKY/WX    TMP DP  RH WIND       PRES   REMARKS
BOZEMAN        SUNNY     10   3  73 CALM      29.92S
DILLON         CLOUDY    14   9  80 NE6       29.84R WCI   5
* W YELLOWSTON PTCLDY     5  -1  76 W1         N/A
* THREE FORKS  SUNNY     10   7  88 N/A        N/A
* BOULDER HILL N/A        7   2  80 S9         N/A   WCI  -6
* MONIDA PASS  N/A       13  11  92 N4         N/A
* RAYNOLDS PAS N/A        8  -5  55 S8         N/A   WCI  -4
* WHITEHALL    N/A        9   4  80 N2         N/A
* WISE RIVER   N/A       11   6  80 N/A        N/A
$$

MTZ009>010-012-014-046-048-049-054-271700-
EAST SLOPES AND CENTRAL MONTANA
CITY           SKY/WX    TMP DP  RH WIND       PRES   REMARKS
CUT BANK       CLOUDY    12   7  80 N17       29.98R WCI  -5
GREAT FALLS    CLOUDY    10   5  80 W3        29.97R
HELENA         SUNNY     14   7  73 CALM      29.96R
* DEARBORN     N/A       13   6  73 VRB7G14    N/A   WCI   3
* EAST GLACIER N/A       13   5  70 VRB17G23    N/A   WCI  -4
* MONARCH      N/A        7   0  73 W1         N/A
* PENDROY      N/A       13  10  88 N20G29     N/A   WCI  -5
* ROGERS PASS  N/A        9   4  80 SE1        N/A
* SWEET GRASS  N/A       10   7  88 N17        N/A   WCI  -8
$$

MTZ011-013-016-021-035-040-045-047-050-051-271700-
NORTH CENTRAL MONTANA
CITY           SKY/WX    TMP DP  RH WIND       PRES   REMARKS
HAVRE          PTSUNNY    3   0  87 CALM      30.06R
LEWISTOWN      PTCLDY     5   0  80 CALM      29.90R
* N BAR RANCH  SUNNY      9   0  66 NW3       29.87S
* CHESTER      N/A        7   0  73 NW2        N/A
* DENTON       N/A        2  -5  72 NW3        N/A
* GEYSER       N/A        9   3  76 W4         N/A
* JUDITH GAP   N/A        2  -1  87 S6         N/A   WCI  -9
* LOMA         N/A        7   1  76 SE1        N/A
$$

MTZ017>020-022>027-061-062-271700-
NORTHEAST MONTANA
CITY           SKY/WX    TMP DP  RH WIND       PRES   REMARKS
GLASGOW        SUNNY      5  -4  66 SE16      30.10F WCI -14
GLENDIVE       SUNNY      7   1  76 S14       30.16F WCI -10
JORDAN         SUNNY      9   1  70 S6        30.06F WCI  -1
SIDNEY         SUNNY      7 -17  32 CALM      30.24F
WOLF POINT     SUNNY      7  -2  66 NE5       30.17F WCI  -2
* BEAVER HILL  N/A       11  -1  58 S15G20     N/A   WCI  -5
* CIRCLE       N/A        8   1  73 S7         N/A   WCI  -3
* LINDSAY DVD  N/A        3  -3  76 S12G17     N/A   WCI -14
* NAVAJO       N/A        3  -4  72 S12        N/A   WCI -14
* SACO         N/A        4  -3  72 E10        N/A   WCI -11
$$

MTZ028>042-056>058-271700-
SOUTHCENTRAL AND SOUTHEAST MONTANA
CITY           SKY/WX    TMP DP  RH WIND       PRES   REMARKS
BAKER          SUNNY      9   0  66 SE16      30.14S WCI  -8
BILLINGS       PTCLDY     7   1  76 S5        29.97S WCI  -2
LIVINGSTON     SUNNY      7   1  76 NW13      29.88S WCI  -9
MILES CITY     SUNNY      9   0  66 SE14      30.10F WCI  -7
* LAUREL APT   SUNNY      5  -4  66 N/A        N/A
* ROUNDUP APT  SUNNY      7  -2  66 S10        N/A   WCI  -7
* ALZADA       N/A       -3  -8  79 SE5        N/A   WCI -14
* HYSHAM       N/A       10  -3  55 W2G8       N/A
* LAME DEER    N/A        5   0  80 S12G17     N/A   WCI -11
* REED POINT   N/A        1  -2  87 E4         N/A
* ROSCOE HILL  N/A        9   3  76 SW1        N/A
$$

REGIONAL REPORTS...DAKOTAS
CITY           SKY/WX    TMP DP  RH WIND       PRES   REMARKS
WILLISTON      SUNNY      1  -6  72 S6        30.25F WCI -11
DICKINSON      SUNNY      9   0  66 S17       30.19F WCI  -9
BEACH          SUNNY      7   0  73 S16G22    30.16F WCI -11
CROSBY         SUNNY      0  -6  75 S7        30.23F WCI -13
WATFORD CITY   SUNNY      1  -2  87 CALM      30.22F
BISMARCK       SUNNY      1  -6  72 VRB5      30.39F WCI  -9
GRAND FORKS    SUNNY      1  -6  72 SW6       30.45R WCI -11
FARGO          SUNNY      0  -9  65 SW7       30.49S WCI -13
BUFFALO SD     SUNNY      7   0  73 SE16      30.07F WCI -11
RAPID CITY     SUNNY      9   0  66 S16       30.19F WCI  -8
$$

REGIONAL REPORTS...WYOMING/IDAHO/WASHINGTON
CITY           SKY/WX    TMP DP  RH WIND       PRES   REMARKS
GILLETTE       HAZE       7   1  76 S26       29.98F WCI -15
SHERIDAN       SUNNY     -2  -6  83 S3        29.97F
CODY           PTCLDY     7   3  83 CALM      29.88F
YELLOWSTONE LA PTCLDY     1  -2  87 SE3       29.78S
SALMON         CLOUDY    28  21  75 CALM      29.82S
MULLAN PASS    CLOUDY    18  16  92 SE9       29.73S WCI   7
SAND POINT     PTCLDY    34  27  76 NE8       29.87R WCI  27
SPOKANE        PTCLDY    30  28  92 NE7       29.81S WCI  23
$$

REGIONAL REPORTS...ALBERTA
CITY           SKY/WX    TMP DP  RH WIND       PRES   REMARKS
CALGARY        LGT SNOW  16  10  77 N9        30.05R WCI   5

$$



USA.gov is the U.S. government's official web portal to all federal, state and local government web resources and services.